Location: Mentone
(34.5413°N, 85.5351°W)
Time: 16:59:03
(UTC-05:00)

Okean O Rocket - Visible Passes

Search period start: 30 September 2016 00:00
Search period end: 10 October 2016 00:00
Orbit: 624 x 645 km, 98.1° (Epoch: 30 September)

Date Brightness Start Highest point End Pass type
(mag) Time Alt. Az. Time Alt. Az. Time Alt. Az.
30 Sep 4.5 03:27:44 10° NE 03:28:30 14° NE 03:28:30 14° NE visible
30 Sep 3.2 05:03:56 10° NNW 05:05:58 20° NW 05:05:58 20° NW visible
01 Oct 4.0 03:48:54 10° NNE 03:50:21 19° NE 03:50:21 19° NE visible
01 Oct 3.5 05:26:37 10° NNW 05:27:49 13° NW 05:27:49 13° NW visible
02 Oct 3.5 04:10:25 10° NNE 04:12:12 24° NNE 04:12:12 24° NNE visible
03 Oct 3.2 04:32:12 10° N 04:34:03 24° N 04:34:03 24° N visible
04 Oct 3.3 04:54:14 10° N 04:55:54 20° NNW 04:55:54 20° NNW visible
05 Oct 4.4 03:39:38 10° NE 03:40:17 13° NE 03:40:17 13° NE visible
05 Oct 3.6 05:16:38 10° NNW 05:17:44 14° NW 05:17:44 14° NW visible
06 Oct 4.0 04:01:00 10° NNE 04:02:07 17° NNE 04:02:07 17° NNE visible
07 Oct 3.7 04:22:40 10° N 04:23:58 19° N 04:23:58 19° N visible
08 Oct 3.6 04:44:35 10° N 04:45:48 18° N 04:45:48 18° N visible
09 Oct 3.7 05:06:47 10° NNW 05:07:38 14° NNW 05:07:38 14° NNW visible
